User: anonymous   Login
Location: Unspecified
(0.0000°N, 0.0000°E)
Time: 01:51:11
(UTC+00:00)
Language:

Saudisat 1A - Orbit

View from above orbital plane
View from above orbital plane
View from above satellite
View from above satellite

Ground track
Ground track

The orbit data is extracted from the following two-line orbital elements,

1 26546U 00057B   18115.12136280  .00000101  00000-0  26098-4 0  9995
2 26546  64.5544  78.8320 0008567 310.1407  49.8951 14.90713730953157
Epoch (UTC): 25 April 2018 02:54:45
Eccentricity: 0.0008567
inclination: 64.5544°
perigee height: 590 km
apogee height: 601 km
right ascension of ascending node: 78.8320°
argument of perigee: 310.1407°
revolutions per day: 14.90713730
mean anomaly at epoch: 49.8951°
orbit number at epoch: 95315

The dashed part of the orbit path shows where the satellite is in the earth's shadow,  

DLR